Location: Newark
(45.8667°N, 9.7333°E)
Time: 03:08:42
(UTC+00:00)

FO-29 - Visible Passes

Search period start: 28 February 2020 00:00
Search period end: 09 March 2020 00:00
Orbit: 801 x 1321 km, 98.6° (Epoch: 27 February)

Date Brightness Start Highest point End Pass type
(mag) Time Alt. Az. Time Alt. Az. Time Alt. Az.
28 Feb 12.1 23:10:53 16° NNE 23:10:53 16° NNE 23:12:38 10° N visible
29 Feb 12.1 00:57:22 14° NNW 00:57:22 14° NNW 00:58:19 10° NNW visible
29 Feb 12.3 22:15:00 12° NNE 22:15:00 12° NNE 22:16:07 10° NNE visible
01 Mar 12.0 00:01:28 19° N 00:01:28 19° N 00:03:17 10° N visible
01 Mar 12.1 23:05:34 18° NNE 23:05:34 18° NNE 23:07:43 10° N visible
02 Mar 12.0 00:52:03 17° NNW 00:52:03 17° NNW 00:53:28 10° NNW visible
02 Mar 12.2 22:09:41 12° NNE 22:09:41 12° NNE 22:11:07 10° NNE visible
02 Mar 11.9 23:56:10 21° N 23:56:10 21° N 23:58:24 10° N visible
03 Mar 12.2 01:42:38 12° NNW 01:42:38 12° NNW 01:43:03 10° NNW visible
03 Mar 12.0 23:00:16 19° NNE 23:00:16 19° NNE 23:02:47 10° N visible
04 Mar 11.9 00:46:45 19° NNW 00:46:45 19° NNW 00:48:36 10° NNW visible
04 Mar 12.2 22:04:23 12° NNE 22:04:23 12° NNE 22:06:05 10° NNE visible
04 Mar 11.8 23:50:52 23° N 23:50:52 23° N 23:53:30 10° N visible
05 Mar 12.1 01:37:19 14° NNW 01:37:19 14° NNW 01:38:15 10° NNW visible
05 Mar 11.9 22:54:58 20° NNE 22:54:58 20° NNE 22:57:51 10° N visible
06 Mar 11.8 00:41:27 21° NNW 00:41:27 21° NNW 00:43:44 10° NNW visible
06 Mar 12.2 21:59:06 12° NE 21:59:06 12° NE 22:01:02 10° NNE visible
06 Mar 11.7 23:45:34 25° N 23:45:34 25° N 23:48:36 10° N visible
07 Mar 12.0 01:32:03 16° NNW 01:32:03 16° NNW 01:33:27 10° NNW visible
07 Mar 11.9 22:49:41 20° NNE 22:49:41 20° NNE 22:52:55 10° N visible
08 Mar 11.7 00:36:09 24° NNW 00:36:09 24° NNW 00:38:52 10° NNW visible
08 Mar 12.2 21:53:48 12° NE 21:53:48 12° NE 21:55:57 10° NNE visible
08 Mar 11.7 23:40:17 27° N 23:40:17 27° N 23:43:42 10° N visible
